Location: Ballingbuur
(53.0000°N, 5.7667°E)
Time: 16:45:21
(UTC+00:00)

AISSAT 1 - Visible Passes

Search period start: 24 June 2021 00:00
Search period end: 04 July 2021 00:00
Orbit: 602 x 615 km, 98.2° (Epoch: 24 June)

Date Brightness Start Highest point End Pass type
(mag) Time Alt. Az. Time Alt. Az. Time Alt. Az.
24 Jun ? 01:42:22 10° E 01:44:27 13° NE 01:46:35 10° NNE visible
25 Jun ? 01:55:20 10° E 01:58:05 17° NE 02:00:51 10° NNE visible
26 Jun ? 02:08:31 10° ESE 02:11:44 21° ENE 02:14:59 10° N visible
27 Jun ? 02:21:50 10° ESE 02:25:25 26° ENE 02:29:01 10° N visible
30 Jun ? 01:30:40 10° ENE 01:31:37 11° NE 01:32:33 10° NE visible
01 Jul ? 01:43:08 10° E 01:45:13 13° NE 01:47:17 10° NNE visible
02 Jul ? 01:56:06 10° E 01:58:50 17° NE 02:01:34 10° NNE visible
03 Jul ? 02:09:16 10° ESE 02:12:29 21° ENE 02:15:42 10° N visible
